EW7771 Weather Reports


Display with metric or nautical units.
time (UTC)temp
F
wind
direction
speed
MPH
gust
MPH
rain 1hr
in
rain 24hr
in
rain mn
in
humidity
%
barometer
mb
20260901091914 53 223 0.0 0.0 0.00 0.00 0.00 95 1007.9
20260901091415 53 223 0.0 0.0 0.00 0.00 0.00 95 1007.9
20260901091146 53 223 0.0 0.0 0.00 0.00 0.00 95 1007.9
20260901090414 54 223 0.0 0.0 0.00 0.00 0.00 95 1007.9
20260901085910 54 223 0.0 0.0 0.00 0.00 0.00 95 1007.9
20260901085411 54 223 0.0 0.0 0.00 0.00 0.00 95 1007.9
20260901085137 54 223 0.0 1.0 0.00 0.00 0.00 95 1007.9
20260901084642 54 223 0.0 1.0 0.00 0.00 0.00 95 1007.8
20260901084130 54 223 0.0 0.0 0.00 0.00 0.00 95 1007.8
20260901083409 54 223 0.0 0.0 0.00 0.00 0.00 95 1007.8
20260901082909 54 223 0.0 0.0 0.00 0.00 0.00 95 1007.8
20260901082633 54 223 0.0 0.0 0.00 0.00 0.00 95 1007.9
20260901082136 54 223 0.0 0.0 0.00 0.00 0.00 95 1007.9
20260901081633 54 223 0.0 0.0 0.00 0.00 0.00 94 1007.9
20260901080909 54 223 0.0 0.0 0.00 0.00 0.00 94 1007.9
20260901080903 54 223 0.0 0.0 0.00 0.00 0.00 94 1007.8
20260901075906 55 223 0.0 0.0 0.00 0.00 0.00 94 1007.8
20260901075402 55 223 0.0 0.0 0.00 0.00 0.00 94 1007.7
20260901074911 55 223 0.0 0.0 0.00 0.00 0.00 94 1007.7
20260901074407 55 223 0.0 0.0 0.00 0.00 0.00 94 1007.8
20260901074120 55 223 0.0 1.0 0.00 0.00 0.00 94 1007.8
20260901073353 55 223 0.0 2.0 0.00 0.00 0.00 94 1007.7
20260901072851 55 223 0.0 2.0 0.00 0.00 0.00 94 1007.7
20260901072343 55 223 0.0 0.0 0.00 0.00 0.00 94 1007.7
20260901072102 55 223 0.0 0.0 0.00 0.00 0.00 93 1007.7
20260901071330 55 223 0.0 0.0 0.00 0.00 0.00 93 1007.7
20260901070827 56 223 0.0 1.0 0.00 0.00 0.00 93 1007.7
20260901070319 56 223 0.0 2.0 0.00 0.00 0.00 93 1007.7
20260901065813 56 223 0.0 2.0 0.00 0.00 0.00 93 1007.7
20260901065306 56 223 0.0 0.0 0.00 0.00 0.00 93 1007.7
20260901064803 56 223 0.0 0.0 0.00 0.00 0.00 93 1007.8
20260901064258 56 223 0.0 0.0 0.00 0.00 0.00 93 1007.8
20260901064242 56 223 0.0 0.0 0.00 0.00 0.00 93 1007.8
20260901063252 56 223 0.0 0.0 0.00 0.00 0.00 93 1007.8
20260901062752 57 223 0.0 0.0 0.00 0.00 0.00 93 1007.7
20260901062254 57 223 0.0 0.0 0.00 0.00 0.00 93 1007.8
20260901061753 57 223 0.0 0.0 0.00 0.00 0.00 92 1007.8
20260901061254 57 223 0.0 2.0 0.00 0.00 0.00 92 1007.7
20260901060752 57 223 0.0 2.0 0.00 0.00 0.00 92 1007.8
20260901060251 57 223 0.0 1.0 0.00 0.00 0.00 92 1007.8
20260901060020 58 223 0.0 0.0 0.00 0.00 0.00 92 1007.9
20260901055256 58 223 0.0 0.0 0.00 0.00 0.00 91 1008.0
20260901054753 58 223 0.0 0.0 0.00 0.00 0.00 91 1007.9
20260901054514 58 223 0.0 0.0 0.00 0.00 0.00 91 1007.9
20260901053751 58 223 0.0 0.0 0.00 0.00 0.00 91 1008.0
20260901053251 58 223 0.0 0.0 0.00 0.00 0.00 90 1008.0
20260901052750 58 223 0.0 0.0 0.00 0.00 0.00 90 1008.0
20260901052251 58 223 0.0 0.0 0.00 0.00 0.00 90 1008.0
20260901051745 59 223 0.0 0.0 0.00 0.00 0.00 90 1008.0
20260901051238 59 223 0.0 0.0 0.00 0.00 0.00 90 1008.0
20260901050734 59 223 0.0 0.0 0.00 0.00 0.00 89 1008.0
20260901050232 59 223 0.0 0.0 0.00 0.00 0.00 89 1008.0
20260901045732 59 223 0.0 0.0 0.00 0.00 0.00 89 1008.0
20260901045228 60 223 0.0 0.0 0.00 0.00 0.00 89 1008.1
20260901044730 60 223 0.0 0.0 0.00 0.00 0.00 88 1008.1
20260901044237 60 223 0.0 0.0 0.00 0.00 0.00 88 1008.1
20260901043733 60 223 0.0 0.0 0.00 0.00 0.00 88 1008.1
20260901043232 60 223 0.0 0.0 0.00 0.00 0.00 87 1008.2
20260901042736 60 223 0.0 0.0 0.00 0.00 0.00 87 1008.1
20260901042233 61 223 0.0 1.0 0.00 0.00 0.00 86 1008.2
20260901041728 61 223 0.0 1.0 0.00 0.00 0.00 86 1008.2
20260901041502 61 223 0.0 0.0 0.00 0.00 0.00 85 1008.0
20260901040730 62 223 0.0 0.0 0.00 0.00 0.00 85 1008.0
20260901040232 62 223 0.0 0.0 0.00 0.00 0.00 85 1008.0
20260901035729 62 223 0.0 0.0 0.00 0.00 0.00 84 1007.9
20260901035228 62 223 0.0 0.0 0.00 0.00 0.00 84 1008.0
20260901034957 63 223 0.0 1.0 0.00 0.00 0.00 83 1007.9
20260901034452 63 223 0.0 1.0 0.00 0.00 0.00 83 1007.9
20260901033728 63 223 0.0 2.0 0.00 0.00 0.00 82 1007.8
20260901033230 64 223 0.0 2.0 0.00 0.00 0.00 82 1007.8
20260901032730 64 223 0.0 1.0 0.00 0.00 0.00 82 1007.7
20260901032222 64 223 0.0 1.0 0.00 0.00 0.00 82 1007.6
20260901031716 64 223 0.0 1.0 0.00 0.00 0.00 82 1007.6
20260901031211 65 223 0.0 1.0 0.00 0.00 0.00 82 1007.4
20260901030703 65 223 1.0 3.0 0.00 0.00 0.00 81 1007.4
20260901030156 65 224 1.0 4.0 0.00 0.00 0.00 81 1007.4
20260901025652 66 228 1.0 5.0 0.00 0.00 0.00 80 1007.4
20260901025144 66 211 1.0 5.0 0.00 0.00 0.00 79 1007.3
20260901024639 66 175 1.0 4.0 0.00 0.00 0.00 79 1007.3
20260901024134 67 225 1.0 4.0 0.00 0.00 0.00 78 1007.2
20260901023626 67 235 1.0 4.0 0.00 0.00 0.00 78 1007.2
20260901023120 68 223 2.0 4.0 0.00 0.00 0.00 77 1007.2
20260901022615 68 227 1.0 4.0 0.00 0.00 0.00 77 1007.2
20260901022108 69 183 1.0 4.0 0.00 0.00 0.00 76 1007.1
20260901021602 69 198 1.0 5.0 0.00 0.00 0.00 76 1007.1
20260901021056 69 189 1.0 5.0 0.00 0.00 0.00 74 1007.1
20260901020550 70 175 1.0 4.0 0.00 0.00 0.00 72 1007.1
20260901020044 70 169 2.0 4.0 0.00 0.00 0.00 72 1007.1
20260901015812 71 206 2.0 4.0 0.00 0.00 0.00 70 1007.0
20260901015032 71 220 2.0 6.0 0.00 0.00 0.00 70 1007.1
20260901014527 71 173 2.0 6.0 0.00 0.00 0.00 67 1007.0
20260901014020 72 148 1.0 4.0 0.00 0.00 0.00 66 1007.0
20260901013514 72 184 1.0 5.0 0.00 0.00 0.00 70 1007.0
20260901013007 73 221 2.0 5.0 0.00 0.00 0.00 70 1007.0
20260901012503 73 187 1.0 4.0 0.00 0.00 0.00 66 1007.0
20260901011957 73 178 2.0 7.0 0.00 0.00 0.00 65 1007.0
20260901011450 73 103 1.0 7.0 0.00 0.00 0.00 63 1006.9
20260901010944 74 259 1.0 4.0 0.00 0.00 0.00 64 1007.0
20260901010439 74 171 0.0 2.0 0.00 0.00 0.00 67 1006.9
20260901005939 74 104 1.0 3.0 0.00 0.00 0.00 67 1006.9
20260901005441 74 178 1.0 3.0 0.00 0.00 0.00 62 1007.0
20260901004938 75 183 1.0 3.0 0.00 0.00 0.00 61 1006.9
20260901004437 75 206 1.0 5.0 0.00 0.00 0.00 63 1006.9
20260901003937 75 211 2.0 7.0 0.00 0.00 0.00 57 1006.9
20260901003436 75 147 2.0 7.0 0.00 0.00 0.00 57 1007.0
20260901002933 75 355 2.0 6.0 0.00 0.00 0.00 57 1006.9
20260901002658 75 132 2.0 4.0 0.00 0.00 0.00 57 1007.0
20260901001935 76 155 2.0 6.0 0.00 0.00 0.00 57 1007.1
20260901001433 76 119 2.0 6.0 0.00 0.00 0.00 56 1007.2
20260901000933 76 165 2.0 5.0 0.00 0.00 0.00 57 1007.1
20260901000432 76 298 2.0 6.0 0.00 0.00 0.00 56 1007.2
20260831235931 76 46 2.0 6.0 0.00 0.00 0.00 56 1007.2
20260831235432 76 290 2.0 5.0 0.00 0.00 0.00 56 1007.2
20260831234933 76 152 1.0 5.0 0.00 0.00 0.00 57 1007.3
20260831234432 76 229 1.0 5.0 0.00 0.00 0.00 57 1007.3
20260831233931 76 137 1.0 7.0 0.00 0.00 0.00 55 1007.3
20260831233703 77 186 1.0 6.0 0.00 0.00 0.00 57 1007.4
20260831232931 77 41 2.0 5.0 0.00 0.00 0.00 55 1007.4
20260831232427 77 175 1.0 4.0 0.00 0.00 0.00 55 1007.4
20260831232150 77 309 1.0 7.0 0.00 0.00 0.00 54 1007.4
20260831231430 78 165 2.0 7.0 0.00 0.00 0.00 53 1007.4
20260831230927 78 197 3.0 7.0 0.00 0.00 0.00 53 1007.4
20260831230424 78 165 2.0 7.0 0.00 0.00 0.00 53 1007.5
20260831225926 78 166 2.0 7.0 0.00 0.00 0.00 52 1007.7
20260831225652 78 288 2.0 6.0 0.00 0.00 0.00 54 1007.7
20260831224923 78 232 2.0 7.0 0.00 0.00 0.00 54 1007.7
20260831224421 78 209 2.0 7.0 0.00 0.00 0.00 55 1007.8
20260831224141 78 194 2.0 7.0 0.00 0.00 0.00 56 1007.8
20260831223420 78 125 2.0 8.0 0.00 0.00 0.00 56 1007.8
20260831223137 77 230 3.0 9.0 0.00 0.00 0.00 55 1007.9
20260831222418 77 254 2.0 9.0 0.00 0.00 0.00 54 1007.9
20260831221916 77 128 1.0 9.0 0.00 0.00 0.00 55 1008.0
20260831221417 77 103 1.0 9.0 0.00 0.00 0.00 55 1008.0
20260831220921 77 18 1.0 3.0 0.00 0.00 0.00 56 1008.1
20260831220414 77 35 1.0 4.0 0.00 0.00 0.00 56 1008.1
20260831215914 77 333 1.0 4.0 0.00 0.00 0.00 56 1008.1
20260831215406 77 76 1.0 4.0 0.00 0.00 0.00 55 1008.2
20260831214901 77 134 1.0 4.0 0.00 0.00 0.00 54 1008.2
20260831214402 78 58 1.0 4.0 0.00 0.00 0.00 53 1008.3
20260831213856 78 307 1.0 4.0 0.00 0.00 0.00 55 1008.3
20260831213359 78 69 1.0 5.0 0.00 0.00 0.00 56 1008.3
20260831212856 78 207 1.0 5.0 0.00 0.00 0.00 57 1008.5
20260831212357 77 37 1.0 3.0 0.00 0.00 0.00 56 1008.5
20260831211858 78 125 1.0 4.0 0.00 0.00 0.00 57 1008.6
20260831211355 77 294 1.0 4.0 0.00 0.00 0.00 55 1008.6
20260831210854 77 160 1.0 3.0 0.00 0.00 0.00 55 1008.6
20260831210353 77 169 1.0 4.0 0.00 0.00 0.00 56 1008.7
20260831205855 76 90 1.0 4.0 0.00 0.00 0.00 59 1008.8
20260831205356 76 37 1.0 3.0 0.00 0.00 0.00 56 1008.8
20260831204852 76 180 1.0 3.0 0.00 0.00 0.00 56 1008.8
20260831204351 76 13 1.0 5.0 0.00 0.00 0.00 57 1008.9
20260831203851 76 153 1.0 5.0 0.00 0.00 0.00 58 1009.0
20260831203351 75 248 1.0 4.0 0.00 0.00 0.00 60 1009.1
20260831202852 75 99 1.0 4.0 0.00 0.00 0.00 57 1009.2
20260831202351 75 34 1.0 4.0 0.00 0.00 0.00 60 1009.2
20260831201851 75 326 1.0 4.0 0.00 0.00 0.00 59 1009.2
20260831201347 75 263 1.0 5.0 0.00 0.00 0.00 60 1009.3
20260831200839 75 355 0.0 4.0 0.00 0.00 0.00 58 1009.4
20260831200339 75 5 0.0 2.0 0.00 0.00 0.00 61 1009.5
20260831195837 75 331 0.0 3.0 0.00 0.00 0.00 62 1009.5
20260831195336 75 24 0.0 3.0 0.00 0.00 0.00 61 1009.7
20260831194837 74 334 0.0 2.0 0.00 0.00 0.00 60 1009.8
20260831194334 74 84 0.0 2.0 0.00 0.00 0.00 60 1009.8
20260831193834 74 290 1.0 3.0 0.00 0.00 0.00 63 1009.9
20260831193605 74 329 1.0 3.0 0.00 0.00 0.00 62 1010.1
20260831192836 74 202 0.0 4.0 0.00 0.00 0.00 65 1010.1
20260831192603 73 25 0.0 4.0 0.00 0.00 0.00 63 1010.2
20260831191834 72 9 0.0 2.0 0.00 0.00 0.00 64 1010.3
20260831191551 72 78 0.0 3.0 0.00 0.00 0.00 63 1010.5
20260831190833 71 98 0.0 3.0 0.00 0.00 0.00 64 1010.5
20260831190330 71 59 0.0 2.0 0.00 0.00 0.00 67 1010.6
20260831185831 71 5 1.0 2.0 0.00 0.00 0.00 67 1010.7
20260831185331 71 44 1.0 2.0 0.00 0.00 0.00 65 1010.8
20260831184828 70 136 0.0 2.0 0.00 0.00 0.00 65 1010.8
20260831184328 70 298 0.0 3.0 0.00 0.00 0.00 68 1010.9
20260831183839 69 59 1.0 3.0 0.00 0.00 0.00 68 1011.0
20260831183330 69 28 0.0 2.0 0.00 0.00 0.00 69 1011.0
20260831182824 68 43 1.0 4.0 0.00 0.00 0.00 70 1011.0
20260831182319 68 141 1.0 4.0 0.00 0.00 0.00 70 1011.1
20260831181815 67 336 1.0 3.0 0.00 0.00 0.00 74 1011.1
20260831181307 66 338 0.0 3.0 0.00 0.00 0.00 75 1011.2
20260831180801 65 83 0.0 2.0 0.00 0.00 0.00 74 1011.2
20260831180255 64 298 0.0 2.0 0.00 0.00 0.00 80 1011.2
20260831175751 63 333 0.0 3.0 0.00 0.00 0.00 80 1011.3
20260831175243 62 31 1.0 3.0 0.00 0.00 0.00 81 1011.4
20260831174736 62 136 0.0 3.0 0.00 0.00 0.00 81 1011.5
20260831174231 61 111 1.0 3.0 0.00 0.00 0.00 84 1011.5
20260831173723 60 234 1.0 3.0 0.00 0.00 0.00 86 1011.6
20260831173444 60 81 0.0 2.0 0.00 0.00 0.00 88 1011.6
20260831172715 59 69 0.0 3.0 0.00 0.00 0.00 94 1011.7
20260831172429 58 34 0.0 3.0 0.00 0.00 0.00 97 1011.7
20260831171703 57 53 0.0 1.0 0.00 0.00 0.00 98 1011.9
20260831171154 56 55 0.0 1.0 0.00 0.00 0.00 98 1011.9
20260831170649 56 343 0.0 1.0 0.00 0.00 0.00 98 1011.9
20260831170143 55 205 0.0 1.0 0.00 0.00 0.00 98 1012.0
20260831165641 55 236 0.0 1.0 0.00 0.00 0.00 98 1012.1
20260831165132 54 236 0.0 1.0 0.00 0.00 0.00 97 1012.1
20260831164631 54 232 0.0 1.0 0.00 0.00 0.00 98 1012.0
20260831164128 53 232 0.0 0.0 0.00 0.00 0.00 98 1012.1
20260831163626 53 232 0.0 0.0 0.00 0.00 0.00 97 1012.2
20260831163125 52 232 0.0 1.0 0.00 0.00 0.00 97 1012.3
20260831162625 52 232 0.0 0.0 0.00 0.00 0.00 97 1012.3
20260831162125 52 232 0.0 0.0 0.00 0.00 0.00 97 1012.4
20260831161902 51 232 0.0 1.0 0.00 0.00 0.00 97 1012.5
20260831161124 51 232 0.0 1.0 0.00 0.00 0.00 97 1012.6
20260831160623 51 232 0.0 0.0 0.00 0.00 0.00 97 1012.6
20260831160353 50 232 0.0 1.0 0.00 0.00 0.00 97 1012.7
20260831155844 50 232 0.0 1.0 0.00 0.00 0.00 97 1012.7
20260831155115 50 232 0.0 1.0 0.00 0.00 0.00 97 1012.7
20260831154623 50 229 0.0 0.0 0.00 0.00 0.00 97 1012.7
20260831154121 49 229 0.0 0.0 0.00 0.00 0.00 97 1012.7
20260831153615 49 229 0.0 0.0 0.00 0.00 0.00 97 1012.7
20260831153114 49 229 0.0 0.0 0.00 0.00 0.00 97 1012.7
20260831152841 49 229 0.0 0.0 0.00 0.00 0.00 97 1012.8
20260831152116 49 229 0.0 0.0 0.00 0.00 0.00 97 1012.8
20260831151608 49 229 0.0 0.0 0.00 0.00 0.00 97 1012.8
20260831151103 49 229 0.0 0.0 0.00 0.00 0.00 97 1012.8
20260831150557 48 229 0.0 0.0 0.00 0.00 0.00 97 1012.9
20260831150052 48 229 0.0 0.0 0.00 0.00 0.00 97 1013.0
20260831145545 48 222 0.0 1.0 0.00 0.00 0.00 97 1012.9
20260831145306 48 222 0.0 1.0 0.00 0.00 0.00 96 1012.9
20260831144533 48 222 0.0 0.0 0.00 0.00 0.00 96 1012.9
20260831144256 47 222 0.0 0.0 0.00 0.00 0.00 97 1012.9
20260831143531 47 222 0.0 0.0 0.00 0.00 0.00 96 1013.0
20260831143032 47 222 0.0 0.0 0.00 0.00 0.00 96 1013.0
20260831142527 47 222 0.0 0.0 0.00 0.00 0.00 96 1013.0
20260831142029 47 222 0.0 0.0 0.00 0.00 0.00 96 1012.9
20260831141529 47 222 0.0 0.0 0.00 0.00 0.00 96 1013.0
20260831141027 47 222 0.0 0.0 0.00 0.00 0.00 96 1013.0
20260831140748 47 223 0.0 0.0 0.00 0.00 0.00 96 1013.0
20260831140027 47 222 0.0 1.0 0.00 0.00 0.00 96 1013.0
20260831135531 47 222 0.0 1.0 0.00 0.00 0.00 96 1012.9
20260831135028 47 222 0.0 1.0 0.00 0.00 0.00 96 1012.9
20260831134529 47 215 0.0 0.0 0.00 0.00 0.00 96 1012.9
20260831134027 47 215 0.0 0.0 0.00 0.00 0.00 96 1012.9
20260831133531 47 215 0.0 0.0 0.00 0.00 0.00 96 1012.9
20260831133029 47 215 0.0 1.0 0.00 0.00 0.00 96 1013.0
20260831132529 47 215 0.0 2.0 0.00 0.00 0.00 96 1013.0
20260831132026 47 215 0.0 2.0 0.00 0.00 0.00 96 1013.1
20260831131526 47 215 0.0 1.0 0.00 0.00 0.00 96 1013.0
20260831131027 47 215 0.0 1.0 0.00 0.00 0.00 96 1013.1
20260831130520 47 215 0.0 0.0 0.00 0.00 0.00 96 1013.0
20260831130015 47 215 0.0 0.0 0.00 0.00 0.00 96 1013.1
20260831130002 48 215 0.0 0.0 0.00 0.00 0.00 96 1013.1
20260831125002 48 215 0.0 0.0 0.00 0.00 0.00 96 1013.2
20260831124457 47 215 0.0 0.0 0.00 0.00 0.00 96 1013.2
20260831123951 47 215 0.0 0.0 0.00 0.00 0.00 96 1013.2
20260831123445 47 215 0.0 3.0 0.00 0.00 0.00 96 1013.3
20260831122939 47 215 1.0 3.0 0.00 0.00 0.00 96 1013.3
20260831122432 48 211 1.0 3.0 0.00 0.00 0.00 96 1013.3
20260831121926 48 209 1.0 3.0 0.00 0.00 0.00 96 1013.3
20260831121420 48 204 1.0 2.0 0.00 0.00 0.00 96 1013.4
20260831120916 48 204 1.0 2.0 0.00 0.00 0.00 96 1013.5
20260831120408 48 203 1.0 2.0 0.00 0.00 0.00 96 1013.6
20260831115902 48 213 0.0 2.0 0.00 0.00 0.00 96 1013.5
20260831115356 48 213 0.0 2.0 0.00 0.00 0.00 96 1013.5
20260831115128 48 213 1.0 2.0 0.00 0.00 0.00 96 1013.6
20260831114346 48 213 1.0 2.0 0.00 0.00 0.00 96 1013.6
20260831113838 48 213 0.0 2.0 0.00 0.00 0.00 96 1013.7
20260831113332 48 213 0.0 2.0 0.00 0.00 0.00 96 1013.6
20260831112827 48 213 0.0 2.0 0.00 0.00 0.00 96 1013.7
20260831112320 48 213 0.0 0.0 0.00 0.00 0.00 96 1013.7
20260831112050 48 213 0.0 0.0 0.00 0.00 0.00 96 1013.8
20260831111537 48 213 0.0 0.0 0.00 0.00 0.00 96 1014.0
20260831111034 48 213 0.0 1.0 0.00 0.00 0.00 96 1014.1
20260831110256 49 213 0.0 1.0 0.00 0.00 0.00 96 1014.1
20260831105750 49 213 0.0 0.0 0.00 0.00 0.00 96 1014.0
20260831105244 49 213 0.0 1.0 0.00 0.00 0.00 96 1014.1
20260831104739 49 213 0.0 3.0 0.00 0.00 0.00 96 1014.1
20260831104232 49 213 1.0 3.0 0.00 0.00 0.00 96 1014.1
20260831103726 49 221 1.0 2.0 0.00 0.00 0.00 96 1014.3
20260831103450 49 232 0.0 2.0 0.00 0.00 0.00 96 1014.3
20260831102715 49 232 1.0 3.0 0.00 0.00 0.00 96 1014.3
20260831102208 49 232 1.0 3.0 0.00 0.00 0.00 96 1014.4
20260831101702 49 213 0.0 2.0 0.00 0.00 0.00 95 1014.4
20260831101156 49 213 1.0 3.0 0.00 0.00 0.00 96 1014.5
20260831100651 49 213 0.0 3.0 0.00 0.00 0.00 95 1014.4
20260831100404 49 213 0.0 0.0 0.00 0.00 0.00 95 1014.4
20260831095638 49 213 0.0 1.0 0.00 0.00 0.00 95 1014.5
20260831095132 49 213 0.0 2.0 0.00 0.00 0.00 95 1014.6
20260831094627 49 213 0.0 1.0 0.00 0.00 0.00 95 1014.7
20260831094120 49 213 0.0 0.0 0.00 0.00 0.00 95 1014.7
20260831093616 49 213 0.0 0.0 0.00 0.00 0.00 95 1014.8
20260831093116 49 213 0.0 0.0 0.00 0.00 0.00 95 1014.9
20260831092617 49 213 0.0 1.0 0.00 0.00 0.00 95 1015.0